Regional Weather Roundup
Issued by NWS

Home | Current Version | Previous Version | Text Only | Print | Product List | Glossary Off
Versions: 1 2 3 4 5 6 7 8 9 10 11 12 13 14 15 16 17 18 19 20 21 22 23 24 25 26 27 28 29 30 31 32 33 34 35 36 37 38 39 40 41 42 43 44 45 46 47 48 49 50

000
ASUS43 KDTX 050210
RWRMI
MICHIGAN HOURLY REGIONAL WEATHER ROUNDUP
NATIONAL WEATHER SERVICE DETROIT/PONTIAC MI
ISSUED BY NATIONAL WEATHER SERVICE GRAND RAPIDS MI
900 PM EST SUN DEC 04 2016

NOTE: "FAIR" INDICATES FEW OR NO CLOUDS BELOW 12,000 FEET WITH NO
SIGNIFICANT WEATHER AND/OR OBSTRUCTION TO VISIBILITY.

MIZ047>049-052>055-059>063-066>070-074>076-081>083-050300-
SOUTHEAST LOWER MICHIGAN

CITY           SKY/WX    TMP DP  RH WIND       PRES   REMARKS
ADRIAN         LGT SNOW  32  32 100 S5        29.86R FOG     WCI  27
ALMA           LGT SNOW  32  32  99 W5        29.88R VSB 3/4 WCI  28
ANN ARBOR      LGT SNOW  33  32  96 S3        29.85R FOG
BAD AXE        LGT SNOW  35  33  93 SE10      29.83F WCI  27
DETROIT CITY   LGT RAIN  37  35  92 SE8       29.84F WCI  31
DETROIT        LGT SNOW  33  33 100 SE5       29.85F VSB 1   WCI  29
FLINT          LGT SNOW  33  32  96 S6        29.83F FOG     WCI  28
GROSSE ILE     LGT RAIN  36  34  91 SE14G25   29.83F WCI  27
HILLSDALE      LGT SNOW  32  32 100 SE7       29.82S WCI  26
HOWELL         LGT SNOW  33  32  96 S7        29.83S WCI  27

CITY           SKY/WX    TMP DP  RH WIND       PRES   REMARKS
JACKSON        LGT SNOW  33  31  92 SE9       29.83F FOG     WCI  25
LANSING        LGT SNOW  33  31  92 S6        29.84S VSB 3/4 WCI  28
MASON          LGT SNOW  32  32  99 S7        29.83F WCI  26
MONROE         LGT RAIN  36  35  96 S10G17    29.84S WCI  28
MT. CLEMENS    LGT RAIN  38  35  89 SE12      29.80F WCI  31
PONTIAC        LGT SNOW  33  30  88 SE8       29.81F FOG     WCI  26
PORT HOPE        N/A     38  34  85 SE15G29   29.81F WCI  29
PORT HURON     LGT RAIN  36  34  93 E8        29.86F WCI  29
TRI CITIES     SNOW      33  33 100 CALM      29.84F VSB 1/2
YPSILANTI      LGT SNOW  34  33  96 SW3       29.85S FOG
$$
MIZ043>046-050>051-056>058-064>065-071>073-077>080-050300-
SOUTHWEST LOWER MICHIGAN

CITY           SKY/WX    TMP DP  RH WIND       PRES   REMARKS
BATTLE CREEK   LGT SNOW  33  32  96 S6        29.84F FOG     WCI  28
BENTON HARBOR  CLOUDY    33  31  92 CALM      29.87F
BIG RAPIDS     LGT SNOW  32  30  93 SE3       29.85F
COLDWATER      LGT SNOW  33  32  98 SE6       29.82F WCI  27
HOLLAND        LGT SNOW  33  32  96 CALM      29.87S FOG
GRAND RAPIDS   LGT SNOW  32  31  96 N3        29.86F VSB 3/4
KALAMAZOO      LGT SNOW  33  31  92 SW3       29.85S VSB 1
MARSHALL       LGT SNOW  33  32  98 SE6       29.82F WCI  27
MOUNT PLEASANT SNOW      32  32  99 CALM      29.87R VSB 1/2
MUSKEGON       LGT SNOW  33  32  96 SE7       29.87F VSB 1   WCI  27
STURGIS        LGT SNOW  33  32  96 S5        29.83F WCI  28
$$
MIZ016>042-050300-
NORTHERN LOWER MICHIGAN

CITY           SKY/WX    TMP DP  RH WIND       PRES   REMARKS
ALPENA         LGT SNOW  33  31  92 CALM      29.87F VSB 3/4
BEAVER ISLAND  LGT SNOW  32  32 100 S5        29.83F WCI  28
BELLAIRE       LGT SNOW  32  31  99 CALM      29.87S VSB 1
CADILLAC       LGT SNOW  31  29  95 SE6       29.82F WCI  25
CHARLEVOIX     LGT SNOW  32  32 100 SE3       29.87F
GAYLORD        LGT SNOW  30  27  88 S5        29.83S FOG     WCI  25
HOUGHTON LAKE  LGT SNOW  31  30  96 SW7       29.86S VSB 3/4 WCI  24
MANISTEE       LGT SNOW  32  31  96 E5        29.84F VSB 1   WCI  27
OSCODA         LGT SNOW  35  33  94 MISG      29.85F
PELLSTON       LGT SNOW  32  29  88 S5        29.86F FOG     WCI  27
TRAVERSE CITY  LGT SNOW  33  31  92 CALM      29.84F VSB 1
LUDINGTON      LGT SNOW  32  32 100 SE3       29.84F
$$
MIZ007>008-015-050300-
EASTERN UPPER MICHIGAN

CITY           SKY/WX    TMP DP  RH WIND       PRES   REMARKS
KINROSS        LGT SNOW  32  31  96 SE10      29.85F FOG     WCI  24
MACKINAC ISLAN LGT SNOW  32  32 100 S6        29.85F WCI  26
NEWBERRY       LGT SNOW  32  31  97 SE5       29.82F WCI  27
S. S. MARIE    LGT SNOW  31  30  96 E7        29.85F VSB 1   WCI  24
$$
MIZ004>006-011>014-085-050300-
CENTRAL UPPER MICHIGAN

CITY           SKY/WX    TMP DP  RH WIND       PRES   REMARKS
MANISTIQUE     LGT RAIN  35  33  92 S8        29.80F WCI  28
ESCANABA       LGT SNOW  32  31  96 CALM      29.80F FOG
MENOMINEE      LGT SNOW  32  31  96 S3        29.81F FOG
SAWYER-GWINN   LGT SNOW  28  28 100 S9        29.76F WCI  20
$$
MIZ001>003-009>011-084-050300-
WESTERN UPPER MICHIGAN

CITY           SKY/WX    TMP DP  RH WIND       PRES   REMARKS
IRON MOUNTAIN  LGT SNOW  30  27  88 SE7       29.74F FOG     WCI  23
HOUGHTON       LGT SNOW  30  28  92 S7        29.71F FOG     WCI  23
COPPER HARBOR    N/A     33  31  92 SW5       29.74F WCI  29
IRONWOOD       FLURRIES  31  29  92 S9        29.69F WCI  23
$$

ABBREVIATIONS USED IN REMARKS
   TC - TEMPERATURE IN CELSIUS
  WCI - WIND CHILL INDEX
   HX - HEAT INDEX
  VSB - VISIBILITY




USA.gov is the U.S. government's official web portal to all federal, state and local government web resources and services.